TimePST,TemperatureF,Dew PointF,Humidity,Sea Level PressureIn,VisibilityMPH,Wind Direction,Wind SpeedMPH,Gust SpeedMPH,PrecipitationIn,Events,Conditions,WindDirDegrees,DateUTC
12:53 AM,24.1,18.0,77,29.94,10.0,Calm,Calm,-,N/A,,Overcast,0,2013-01-06 08:53:00
1:53 AM,26.1,19.0,75,29.93,10.0,South,6.9,-,N/A,,Overcast,170,2013-01-06 09:53:00
2:53 AM,30.0,19.0,64,29.92,10.0,SSW,3.5,-,N/A,,Overcast,210,2013-01-06 10:53:00
4:10 AM,30.2,23.0,75,29.97,2.5,South,5.8,-,0.00,Snow,Light Snow,180,2013-01-06 12:10:00
4:27 AM,28.4,24.8,86,29.97,2.0,South,3.5,-,0.00,Snow,Light Snow,170,2013-01-06 12:27:00
4:40 AM,28.4,24.8,86,29.97,1.8,SSE,3.5,-,0.00,Snow,Light Snow,160,2013-01-06 12:40:00
4:53 AM,28.9,25.0,85,29.95,1.8,South,3.5,-,0.00,Snow,Light Snow,170,2013-01-06 12:53:00
5:29 AM,30.2,26.6,86,29.98,0.8,Calm,Calm,-,0.01,Snow,Light Snow,0,2013-01-06 13:29:00
5:49 AM,28.4,26.6,93,29.98,1.0,Calm,Calm,-,0.03,Snow,Light Snow,0,2013-01-06 13:49:00
5:53 AM,28.9,26.1,89,29.96,1.2,Calm,Calm,-,0.03,Snow,Light Snow,0,2013-01-06 13:53:00
6:53 AM,30.0,26.1,85,29.96,2.5,Calm,Calm,-,0.01,Snow,Light Snow,0,2013-01-06 14:53:00
7:00 AM,30.2,26.6,86,29.98,3.0,Calm,Calm,-,0.00,Snow,Light Snow,0,2013-01-06 15:00:00
7:18 AM,28.4,26.6,93,29.98,3.0,Calm,Calm,-,0.00,Snow,Light Snow,0,2013-01-06 15:18:00
7:25 AM,28.4,26.6,93,29.99,3.0,Calm,Calm,-,0.00,Snow,Light Snow,0,2013-01-06 15:25:00
7:53 AM,28.0,25.0,88,30.00,3.0,Calm,Calm,-,0.00,Snow,Light Snow,0,2013-01-06 15:53:00
8:07 AM,28.4,24.8,86,29.99,6.0,Calm,Calm,-,0.00,,Overcast,0,2013-01-06 16:07:00
8:53 AM,28.9,26.1,89,30.02,4.0,Calm,Calm,-,0.00,Snow,Light Snow,0,2013-01-06 16:53:00
9:12 AM,30.2,26.6,86,30.01,1.8,NNE,3.5,-,0.00,Snow,Light Snow,30,2013-01-06 17:12:00
9:19 AM,30.2,26.6,86,30.01,0.5,NNE,6.9,-,0.01,Fog-Snow,Snow,20,2013-01-06 17:19:00
9:23 AM,30.2,24.8,80,30.01,0.2,NNE,5.8,-,0.01,Snow,Heavy Snow,20,2013-01-06 17:23:00
9:53 AM,30.0,25.0,82,30.04,0.2,North,3.5,-,0.04,Snow,Heavy Snow,10,2013-01-06 17:53:00
10:53 AM,30.0,25.0,82,30.04,0.2,NNE,5.8,-,0.05,Snow,Heavy Snow,30,2013-01-06 18:53:00
11:15 AM,30.2,24.8,80,30.02,2.0,NNE,4.6,-,0.01,Snow,Light Snow,20,2013-01-06 19:15:00
11:53 AM,32.0,24.1,73,30.04,10.0,NNE,5.8,-,0.01,,Overcast,30,2013-01-06 19:53:00
12:11 PM,32.0,23.0,69,30.00,10.0,NNE,6.9,-,N/A,,Mostly Cloudy,20,2013-01-06 20:11:00
12:53 PM,33.1,21.0,61,30.02,10.0,NNE,6.9,-,N/A,,Mostly Cloudy,30,2013-01-06 20:53:00
1:53 PM,33.1,21.9,64,30.01,10.0,Calm,Calm,-,0.00,,Overcast,0,2013-01-06 21:53:00
2:53 PM,32.0,14.0,48,30.02,10.0,Calm,Calm,-,N/A,,Overcast,0,2013-01-06 22:53:00
3:53 PM,32.0,16.0,52,30.03,10.0,Calm,Calm,-,N/A,,Overcast,0,2013-01-06 23:53:00
4:53 PM,30.0,19.9,66,30.04,10.0,Calm,Calm,-,N/A,,Overcast,0,2013-01-07 00:53:00
5:53 PM,28.9,21.0,72,30.06,10.0,Calm,Calm,-,N/A,,Overcast,0,2013-01-07 01:53:00
7:06 PM,30.2,21.2,69,30.06,10.0,NNE,6.9,-,N/A,,Overcast,30,2013-01-07 03:06:00
7:29 PM,30.2,21.2,69,30.06,10.0,Variable,3.5,-,N/A,,Overcast,0,2013-01-07 03:29:00
7:53 PM,30.9,21.9,69,30.08,10.0,North,6.9,16.1,N/A,,Overcast,360,2013-01-07 03:53:00
8:53 PM,30.9,21.9,69,30.11,10.0,North,10.4,18.4,N/A,,Mostly Cloudy,10,2013-01-07 04:53:00
9:53 PM,30.0,21.9,72,30.13,10.0,Calm,Calm,-,N/A,,Overcast,0,2013-01-07 05:53:00
10:53 PM,28.9,21.0,72,30.12,10.0,Calm,Calm,-,N/A,,Clear,0,2013-01-07 06:53:00
11:53 PM,26.1,19.9,78,30.14,10.0,Calm,Calm,-,N/A,,Clear,0,2013-01-07 07:53:00